Location: Melbourne
(37.8666°S, 145.1333°E)
Time: 10:05:47
(UTC+11:00)

Iridium 72 - Visible Passes

Search period start: 23 October 2014 00:00
Search period end: 02 November 2014 00:00
Orbit: 776 x 779 km, 86.4° (Epoch: 22 October)

Date Brightness Start Highest point End Pass type
(mag) Time Alt. Az. Time Alt. Az. Time Alt. Az.
23 Oct 8.3 04:00:07 10° ENE 04:03:08 16° E 04:06:11 10° SE visible
23 Oct 5.7 05:38:11 10° NNW 05:43:18 54° W 05:48:29 10° S visible
24 Oct 5.7 05:04:32 10° N 05:09:45 80° E 05:15:03 10° S visible
25 Oct 6.7 04:31:26 10° NNE 04:36:20 42° E 04:41:17 10° SSE visible
26 Oct 7.8 03:59:01 10° NE 04:03:02 23° E 04:07:05 10° SSE visible
26 Oct 6.1 05:38:39 10° NNW 05:43:28 37° W 05:48:21 10° SSW visible
27 Oct 8.4 03:27:56 10° E 03:29:51 12° ESE 03:31:47 10° SE visible
27 Oct 5.5 05:04:37 10° N 05:09:50 70° W 05:15:07 10° S visible
28 Oct 6.0 04:31:11 10° NNE 04:36:20 62° E 04:41:33 10° S visible
29 Oct 7.1 03:58:19 10° NNE 04:02:57 33° E 04:07:38 10° SSE visible
29 Oct 6.6 05:39:21 10° NW 05:43:40 26° W 05:48:01 10° SSW visible
30 Oct 8.0 03:26:16 10° ENE 03:29:42 18° E 03:33:09 10° SE visible
30 Oct 5.8 05:05:20 12° NNW 05:09:57 47° W 05:15:04 10° S visible
31 Oct 5.5 04:32:18 17° N 04:36:22 89° W 04:41:41 10° S visible
01 Nov 6.4 03:59:14 18° NNE 04:02:55 48° E 04:07:59 10° SSE visible
01 Nov 7.1 05:40:25 10° WNW 05:43:54 18° WSW 05:47:26 10° SW visible
